Weather History for Gustavus, AK

Change the Weather History Date:

Friday, January 18, 2013

  Actual Average Record
Temperature  
Mean Temperature 34 °F -  
Max Temperature 37 °F 35 °F 48 °F (2001)
Min Temperature 30 °F 26 °F -2 °F (1952)
Degree Days  
Heating Degree Days 32    
Moisture  
Dew Point 28 °F    
Average Humidity 79    
Maximum Humidity 87    
Minimum Humidity 60    
Precipitation  
Precipitation 0.00 in - - ()
Sea Level Pressure  
Sea Level Pressure 30.11 in    
Wind  
Wind Speed 7 mph (SE)    
Max Wind Speed 14 mph    
Max Gust Speed 22 mph    
Visibility 8 miles    
Events      
Averages and records for this station are not official NWS values.
T = Trace of Precipitation, MM = Missing Value Source: NWS Daily Summary

Daily Weather History Graph

Daily Weather History Graph

Search for Another Location

Airport:

Trip Planner

Search our weather history database for the weather conditions in past years. The results will help you decide how hot, cold, wet, or windy it might be!

Date:

Astronomy

Jan. 18, 2013 Rise Set
Actual Time 8:33 AM AKST 3:53 PM AKST
Civil Twilight 7:45 AM AKST 4:41 PM AKST
Nautical Twilight 6:55 AM AKST 5:32 PM AKST
Astronomical Twilight 6:07 AM AKST 6:19 PM AKST
Moon 10:21 AM AKST (1/18) 12:41 AM AKST (1/18)
Length of Visible Light 8h 55m
Length of Day
7h 19m
Waxing Crescent, 49% of the Moon is Illuminated
Jan 18
Waxing Crescent
Jan 18
First Quarter
Jan 26
Full
Feb 3
Last Quarter
Feb 9
New

Hourly Weather History & Observations

Time (AKST) Temp. Windchill Dew Point Humidity Pressure Visibility Wind Dir Wind Speed Gust Speed Precip Events Conditions
12:16 AM 35.6 °F 27.5 °F 24.8 °F 65% 29.87 in 10.0 mi SSW 11.5 mph 21.9 mph N/A   Partly Cloudy
12:36 AM 35.6 °F 28.6 °F 24.8 °F 65% 29.88 in 10.0 mi SSW 9.2 mph - N/A   Clear
12:56 AM 35.6 °F 29.2 °F 24.8 °F 65% 29.88 in 10.0 mi SSE 8.1 mph - N/A   Scattered Clouds
1:16 AM 35.6 °F 28.0 °F 24.8 °F 65% 29.89 in 10.0 mi SSE 10.4 mph - N/A   Mostly Cloudy
1:36 AM 35.6 °F 29.2 °F 24.8 °F 65% 29.90 in 10.0 mi South 8.1 mph - N/A   Overcast
1:56 AM 35.6 °F 29.2 °F 24.8 °F 65% 29.91 in 10.0 mi South 8.1 mph - N/A   Overcast
2:16 AM 35.6 °F 28.0 °F 24.8 °F 65% 29.91 in 10.0 mi South 10.4 mph - N/A   Overcast
2:36 AM 37.4 °F 28.9 °F 24.8 °F 60% 29.92 in 10.0 mi SSW 13.8 mph 19.6 mph N/A   Overcast
2:56 AM 35.6 °F 28.0 °F 26.6 °F 70% 29.93 in 10.0 mi SSW 10.4 mph - N/A   Mostly Cloudy
3:16 AM 35.6 °F 28.0 °F 26.6 °F 70% 29.94 in 10.0 mi SSW 10.4 mph - N/A   Overcast
3:36 AM 35.6 °F 28.6 °F 28.4 °F 75% 29.94 in 10.0 mi SSW 9.2 mph - N/A   Overcast
3:56 AM 35.6 °F 30.7 °F 28.4 °F 75% 29.95 in 10.0 mi SSW 5.8 mph - N/A   Overcast
4:16 AM 33.8 °F 30.8 °F 28.4 °F 81% 29.95 in 10.0 mi South 3.5 mph - N/A   Overcast
4:36 AM 33.8 °F 28.6 °F 28.4 °F 81% 29.96 in 10.0 mi ESE 5.8 mph - N/A   Overcast
4:56 AM 33.8 °F 29.6 °F 28.4 °F 81% 29.97 in 10.0 mi ESE 4.6 mph - N/A   Overcast
5:16 AM 35.6 °F 29.9 °F 28.4 °F 75% 29.97 in 10.0 mi SE 6.9 mph - N/A   Overcast
5:36 AM 33.8 °F 28.6 °F 28.4 °F 81% 29.98 in 2.0 mi South 5.8 mph - N/A   Overcast
5:56 AM 33.8 °F 29.6 °F 28.4 °F 81% 29.99 in 10.0 mi SE 4.6 mph - N/A   Overcast
6:16 AM 33.8 °F 30.8 °F 28.4 °F 81% 29.99 in 3.0 mi South 3.5 mph - N/A   Overcast
6:36 AM 33.8 °F 30.8 °F 28.4 °F 81% 30.00 in 10.0 mi SE 3.5 mph - N/A   Mostly Cloudy
6:56 AM 33.8 °F 30.8 °F 28.4 °F 81% 30.01 in 10.0 mi SE 3.5 mph - N/A   Mostly Cloudy
7:16 AM 33.8 °F 27.7 °F 28.4 °F 81% 30.02 in 10.0 mi East 6.9 mph - N/A   Overcast
7:36 AM 33.8 °F 30.8 °F 28.4 °F 81% 30.03 in 10.0 mi East 3.5 mph - N/A   Overcast
7:56 AM 33.8 °F 28.6 °F 28.4 °F 81% 30.04 in 8.0 mi East 5.8 mph - N/A   Overcast
8:16 AM 33.8 °F 28.6 °F 28.4 °F 81% 30.05 in 10.0 mi ESE 5.8 mph - N/A   Overcast
8:36 AM 33.8 °F 26.4 °F 28.4 °F 81% 30.05 in 10.0 mi ESE 9.2 mph - N/A   Overcast
8:56 AM 33.8 °F 28.6 °F 28.4 °F 81% 30.07 in 10.0 mi SE 5.8 mph - N/A   Overcast
9:16 AM 33.8 °F 25.3 °F 26.6 °F 75% 30.08 in 10.0 mi East 11.5 mph - N/A   Overcast
9:36 AM 33.8 °F 27.7 °F 26.6 °F 75% 30.09 in 10.0 mi ESE 6.9 mph - N/A   Overcast
9:56 AM 33.8 °F 27.0 °F 26.6 °F 75% 30.10 in 10.0 mi ESE 8.1 mph - N/A   Overcast
10:16 AM 33.8 °F 27.7 °F 26.6 °F 75% 30.11 in 10.0 mi ESE 6.9 mph - N/A   Overcast
10:36 AM 35.6 °F 29.9 °F 26.6 °F 70% 30.12 in 10.0 mi SSE 6.9 mph - N/A   Overcast
10:56 AM 33.8 °F 28.6 °F 26.6 °F 75% 30.13 in 10.0 mi ESE 5.8 mph - N/A   Mostly Cloudy
11:16 AM 33.8 °F 27.7 °F 28.4 °F 81% 30.14 in 10.0 mi East 6.9 mph - N/A   Overcast
11:36 AM 33.8 °F 26.4 °F 28.4 °F 81% 30.14 in 10.0 mi East 9.2 mph - N/A   Overcast
11:56 AM 35.6 °F 28.6 °F 28.4 °F 75% 30.15 in 10.0 mi SE 9.2 mph - N/A   Mostly Cloudy
12:16 PM 33.8 °F 26.4 °F 28.4 °F 81% 30.15 in 10.0 mi SE 9.2 mph - N/A   Overcast
12:36 PM 33.8 °F 27.7 °F 28.4 °F 81% 30.16 in 0.8 mi SE 6.9 mph - N/A   Overcast
12:56 PM 33.8 °F 27.7 °F 28.4 °F 81% 30.17 in 1.5 mi ESE 6.9 mph - N/A   Overcast
1:16 PM 33.8 °F 27.7 °F 28.4 °F 81% 30.17 in 2.5 mi East 6.9 mph - N/A   Overcast
1:36 PM 33.8 °F - 28.4 °F 81% 30.18 in 7.0 mi Calm Calm - N/A   Overcast
1:56 PM 33.8 °F 29.6 °F 28.4 °F 81% 30.18 in 1.0 mi ESE 4.6 mph - N/A   Overcast
2:16 PM 33.8 °F 29.6 °F 28.4 °F 81% 30.18 in 4.0 mi ESE 4.6 mph - N/A   Overcast
2:36 PM 33.8 °F 30.8 °F 28.4 °F 81% 30.18 in 1.2 mi SE 3.5 mph - N/A   Overcast
2:56 PM 33.8 °F 30.8 °F 28.4 °F 81% 30.18 in 8.0 mi East 3.5 mph - N/A   Overcast
3:16 PM 33.8 °F - 28.4 °F 81% 30.19 in 7.0 mi Calm Calm - N/A   Overcast
3:36 PM 33.8 °F - 28.4 °F 81% 30.19 in 4.0 mi Calm Calm - N/A   Overcast
3:56 PM 33.8 °F - 28.4 °F 81% 30.19 in 1.0 mi Calm Calm - N/A   Overcast
4:16 PM 33.8 °F - 28.4 °F 81% 30.19 in 8.0 mi Calm Calm - N/A   Overcast
4:36 PM 33.8 °F - 28.4 °F 81% 30.20 in 10.0 mi Calm Calm - N/A   Overcast
4:56 PM 33.8 °F - 28.4 °F 81% 30.20 in 10.0 mi Calm Calm - N/A   Overcast
5:16 PM 33.8 °F - 28.4 °F 81% 30.21 in 10.0 mi Calm Calm - N/A   Overcast
5:36 PM 33.8 °F - 28.4 °F 81% 30.21 in 10.0 mi Calm Calm - N/A   Overcast
5:56 PM 33.8 °F - 28.4 °F 81% 30.21 in 3.0 mi Calm Calm - N/A   Mostly Cloudy
6:16 PM 33.8 °F - 28.4 °F 81% 30.22 in 6.0 mi Calm Calm - N/A   Mostly Cloudy
6:36 PM 33.8 °F 29.6 °F 30.2 °F 87% 30.22 in 10.0 mi ENE 4.6 mph - N/A   Overcast
6:56 PM 33.8 °F 30.8 °F 28.4 °F 81% 30.22 in 10.0 mi ESE 3.5 mph - N/A   Overcast
7:16 PM 33.8 °F 30.8 °F 28.4 °F 81% 30.22 in 10.0 mi SE 3.5 mph - N/A   Overcast
7:36 PM 33.8 °F - 28.4 °F 81% 30.23 in 10.0 mi Calm Calm - N/A   Overcast
7:56 PM 33.8 °F - 28.4 °F 81% 30.23 in 10.0 mi Calm Calm - N/A   Overcast
8:16 PM 32.0 °F - 28.4 °F 87% 30.23 in 10.0 mi Calm Calm - N/A   Overcast
8:36 PM 33.8 °F 30.8 °F 26.6 °F 75% 30.23 in 10.0 mi SSE 3.5 mph - N/A   Overcast
8:56 PM 30.2 °F - 24.8 °F 80% 30.23 in 10.0 mi Calm Calm - N/A   Mostly Cloudy
9:16 PM 32.0 °F - 26.6 °F 80% 30.23 in 10.0 mi Calm Calm - N/A   Clear
9:36 PM 30.2 °F - 26.6 °F 86% 30.24 in 8.0 mi Calm Calm - N/A   Mostly Cloudy
9:56 PM 30.2 °F - 26.6 °F 86% 30.24 in 3.0 mi Calm Calm - N/A   Mostly Cloudy
10:16 PM 30.2 °F 25.4 °F 26.6 °F 86% 30.25 in 10.0 mi NNW 4.6 mph - N/A   Overcast
10:36 PM 30.2 °F 24.3 °F 26.6 °F 86% 30.25 in 10.0 mi NNW 5.8 mph - N/A   Overcast
10:56 PM 30.2 °F - 26.6 °F 86% 30.26 in 10.0 mi Calm Calm - N/A   Overcast
11:16 PM 30.2 °F 26.7 °F 26.6 °F 86% 30.26 in 10.0 mi NNW 3.5 mph - N/A   Overcast
11:36 PM 30.2 °F 26.7 °F 26.6 °F 86% 30.27 in 10.0 mi NNW 3.5 mph - N/A   Overcast
11:56 PM 30.2 °F - 26.6 °F 86% 30.27 in 10.0 mi Calm Calm - N/A   Overcast